McCook, NE

9:39 PM CDT on August 31, 2016 (GMT -0500)
McCook Municipal

Weather History for KMCK - July, 2013

Change the Weather History Date:

Tuesday, July 2, 2013

  Actual Average Record
Temperature  
Mean Temperature 67 °F 75 °F  
Max Temperature 86 °F 89 °F 106 °F (1990)
Min Temperature 48 °F 61 °F 48 °F (2013)
Cooling Degree Days 1    
Growing Degree Days 16 (Base 50)    
Moisture  
Dew Point 42 °F    
Average Humidity 43    
Maximum Humidity 86    
Minimum Humidity 17    
Precipitation  
Precipitation 0.00 in 0.10 in 1.30 in (1979)
Month to date precipitation 0.00 0.20  
Year to date precipitation 5.99 11.52  
Sea Level Pressure  
Sea Level Pressure 30.15 in    
Wind  
Wind Speed 3 mph (East)    
Max Wind Speed 12 mph    
Max Gust Speed 18 mph    
Visibility 9 miles    
Events      
T = Trace of Precipitation, MM = Missing Value Source: NWS Daily Summary

Daily Weather History Graph

Daily Weather History Graph

Search for Another Location

Airport or City:

Trip Planner

Search our weather history database for the weather conditions in past years. The results will help you decide how hot, cold, wet, or windy it might be!

Date:

Astronomy

Jul. 02, 2013 Rise Set
Actual Time 6:17 AM CDT 9:15 PM CDT
Civil Twilight 5:44 AM CDT 9:48 PM CDT
Nautical Twilight 5:02 AM CDT 10:29 PM CDT
Astronomical Twilight 4:14 AM CDT 11:18 PM CDT
Moon 2:21 AM CDT (7/2) 4:31 PM CDT (7/2)
Length of Visible Light 16h 03m
Length of Day
14h 58m
Waning Crescent, 26% of the Moon is Illuminated
Jul 2
Waning Crescent
Jul 8
New
Jul 15
First Quarter
Jul 22
Full
Jul 29
Last Quarter

Hourly Weather History & Observations

Time (CDT) Temp. Dew Point Humidity Pressure Visibility Wind Dir Wind Speed Gust Speed Precip Events Conditions
12:53 AM 60.1 °F 43.0 °F 53% 30.21 in 9.0 mi Calm Calm - N/A   Clear
1:53 AM 57.9 °F 44.1 °F 60% 30.20 in 9.0 mi Calm Calm - N/A   Clear
2:53 AM 57.0 °F 44.1 °F 62% 30.19 in 9.0 mi Calm Calm - N/A   Clear
3:53 AM 54.0 °F 43.0 °F 66% 30.20 in 9.0 mi WNW 3.5 mph - N/A   Clear
4:53 AM 52.0 °F 44.1 °F 74% 30.20 in 8.0 mi Calm Calm - N/A   Clear
5:53 AM 48.0 °F 44.1 °F 86% 30.22 in 7.0 mi WSW 8.1 mph - N/A   Clear
6:53 AM 48.9 °F 44.1 °F 83% 30.22 in 6.0 mi Calm Calm - N/A   Haze
7:53 AM 54.0 °F 46.0 °F 75% 30.22 in 6.0 mi Calm Calm - N/A   Haze
9:53 AM 70.0 °F 46.9 °F 44% 30.21 in 8.0 mi Calm Calm - N/A   Clear
10:53 AM 75.0 °F 45.0 °F 34% 30.20 in 9.0 mi Calm Calm - N/A   Clear
11:53 AM 77.0 °F 45.0 °F 32% 30.19 in 10.0 mi Variable 4.6 mph - N/A   Clear
12:53 PM 80.1 °F 37.9 °F 22% 30.17 in 10.0 mi SSE 10.4 mph - N/A   Clear
1:53 PM 81.0 °F 39.0 °F 22% 30.15 in 10.0 mi East 4.6 mph - N/A   Clear
2:53 PM 82.9 °F 37.0 °F 19% 30.13 in 10.0 mi Variable 6.9 mph - N/A   Clear
3:53 PM 82.9 °F 37.0 °F 19% 30.11 in 10.0 mi Variable 5.8 mph - N/A   Clear
4:53 PM 84.9 °F 36.0 °F 17% 30.09 in 10.0 mi East 6.9 mph 18.4 mph N/A   Clear
5:53 PM 82.9 °F 36.0 °F 19% 30.08 in 10.0 mi Calm Calm - N/A   Clear
6:53 PM 84.0 °F 39.0 °F 20% 30.07 in 10.0 mi East 11.5 mph - N/A   Clear
7:53 PM 80.1 °F 39.9 °F 24% 30.07 in 10.0 mi ENE 9.2 mph - N/A   Partly Cloudy
8:53 PM 75.9 °F 43.0 °F 31% 30.06 in 9.0 mi East 9.2 mph - N/A   Clear
9:53 PM 70.0 °F 44.1 °F 39% 30.07 in 10.0 mi East 6.9 mph - N/A   Clear
10:53 PM 66.9 °F 44.1 °F 44% 30.08 in 10.0 mi East 8.1 mph - N/A   Clear
11:53 PM 64.0 °F 43.0 °F 46% 30.09 in 9.0 mi East 6.9 mph - N/A   Clear